Weather in Novomikhaylovskiy

Russia / Krasnodar Krai     44°15′08″N   38°50′47″E
temp.,
°C
wind,
m/s
gust,
m/s
humid.,
%
clouds,
%
prec.,
mm/h
press.,
hPa
HPBL,
m
14 may, fri
fri1400:00+18ene44684 0.0 100916
03:00+18ne33560 0.0 100912
06:00+18nne44545 0.0 100915
09:00+20wsw12585 0.0 101064
12:00+19sw33590 0.0 1011121
15:00+18nw115841 0.0 1011103
18:00+19w1164100 0.0 101111
21:00+17nne33660 0.0 101114
15 may, sat
sat1500:00+17ne22671 0.0 101115
03:00+17ene33710 0.0 101212
06:00+16ene33725 0.0 101327
09:00+19sw01705 0.0 101391
12:00+16s338724 0.0 1014150
15:00+15s119069 0.0 101389
18:00+17wsw238520 0.0 1011114
21:00+17s23850 0.1 101137
16 may, sun
sun1600:00+15e45875 0.1 101284
03:00+15nne3388100 0.1 101032
06:00+16nne3393100 0.0 100935
09:00+20nne448293 0.0 100894
12:00+22ene1275100 0.0 1006168
15:00+23wnw45753 0.0 1004256
18:00+25ne56675 0.0 1002162
21:00+21e458677 0.0 100245
17 may, mon
mon1700:00+17ssw229876 0.0 100335
03:00+17ese339090 0.0 100420
06:00+17sse91384100 0.0 1005399
09:00+16sse5788100 0.0 1008286
12:00+16sse6989100 0.0 1010308
15:00+16sse589056 0.0 1010380
18:00+16sse469199 0.0 1010280
21:00+15se4793100 0.0 1012253
18 may, tue
tue1800:00+15sse61094100 0.0 1013437
03:00+15sse7109476 0.1 1013442
06:00+16sse6894100 0.1 1014388
09:00+16sse679399 0.2 1015394
12:00+16s569022 0.0 1016350
15:00+16sse568921 0.0 1016304
18:00+16se459119 0.0 1016218
21:00+15ese34930 0.0 1016111